Regional Weather Roundup
Issued by NWS

Home | Current Version | Previous Version | Graphics & Text | Print | Product List | Glossary On
Versions: 1 2 3 4 5 6 7 8 9 10 11 12 13 14 15 16 17 18 19 20 21 22 23 24 25 26 27 28 29 30 31 32 33 34 35 36 37 38 39 40 41 42 43 44 45 46 47 48 49 50
000
ASUS43 KOAX 210802
RWRNE

WEATHER ROUNDUP FOR NEBRASKA
NATIONAL WEATHER SERVICE OMAHA NE
200 AM CST FRI NOV 21 2014

NOTES: SATELLITE DATA IS BEING USED TO AUGMENT CLOUD COVER ABOVE
       12000 FEET.
       "FAIR" INDICATES FEW OR NO CLOUDS BELOW 12,000 FEET WITH NO
       SIGNIFICANT WEATHER AND/OR OBSTRUCTIONS TO VISIBILITY.

  * THESE STATIONS DO NOT REPORT WEATHER SUCH AS RAIN...SNOW OR FOG.

NEZ001>004-019>022-054>056-210900-
NEBRASKA PANHANDLE

CITY           SKY/WX    TMP DP  RH WIND       PRES   REMARKS
SCOTTSBLUFF    MOCLDY    27  19  72 NE5       29.93F WCI  22
ALLIANCE       PTCLDY    25  18  74 S10       29.92F WCI  15
CHADRON        MOCLDY    23  19  85 SW5       29.89F WCI  17
SIDNEY         CLOUDY    32  19  58 S9        29.95F WCI  24
$$

NEZ057>060-069>072-079>082-210900-
SOUTHWEST NEBRASKA

CITY           SKY/WX    TMP DP  RH WIND       PRES   REMARKS
NORTH PLATTE   PTCLDY    17  13  84 E5        30.05F WCI  10
IMPERIAL       MOCLDY    25  18  74 SE7       30.01F WCI  17
MCCOOK         PTCLDY    20  16  84 NE5       30.07F WCI  13
$$

NEZ005>010-023>029-035>040-094-210900-
NORTH CENTRAL NEBRASKA

CITY           SKY/WX    TMP DP  RH WIND       PRES   REMARKS
VALENTINE      CLEAR     28  21  75 S15       29.96F WCI  16
AINSWORTH      CLEAR     25  19  77 S18G25    29.98F WCI  12
BROKEN BOW     CLEAR     20  15  81 SE6       30.07F WCI  12
ORD            PTCLDY    17  14  88 SE5       30.10F WCI  10
THEDFORD       CLEAR     26  20  79 S8        30.01F WCI  18
$$

NEZ041-046>049-061>064-073>077-083>087-210900-
SOUTH CENTRAL NEBRASKA

CITY           SKY/WX    TMP DP  RH WIND       PRES   REMARKS
GRAND ISLAND   PTCLDY    22  17  81 S9        30.15F WCI  12
AURORA         PTCLDY    20  16  86 S9        30.16F WCI   9
HASTINGS       CLEAR     20  16  84 S9        30.14F WCI   9
HEBRON         PTCLDY    22  17  79 E3        30.19F
HOLDREGE       PTCLDY    22  17  80 S6        30.10F WCI  14
KEARNEY *      CLEAR     19  14  79 E8        30.13F WCI   9
YORK           PTCLDY    19  16  86 S7        30.18S WCI  10
$$

NEZ011>018-030>034-042>045-210900-
NORTHEAST NEBRASKA

CITY           SKY/WX    TMP DP  RH WIND       PRES   REMARKS
NORFOLK        PTCLDY    18  14  84 SE9       30.16F WCI   7
ALBION         PTCLDY    19  15  84 S8        30.15S WCI   9
BLAIR          PTCLDY    20  15  79 SE8       30.23S WCI  11
COLUMBUS *     PTCLDY    19  12  73 SE7       30.20F WCI  10
FREMONT        CLEAR     21  17  83 SE8       30.23S WCI  11
TEKAMAH        PTCLDY    17  11  77 SE8       30.25F WCI   7
WAYNE          PTCLDY    17  14  86 S9        30.19F WCI   6
$$

NEZ050>053-065>068-078-088>093-210900-
SOUTHEAST NEBRASKA

CITY           SKY/WX    TMP DP  RH WIND       PRES   REMARKS
LINCOLN        PTCLDY    19  15  84 SE7       30.24F WCI  10
OMAHA EPPLEY   PTCLDY    19  14  81 SE5       30.27F WCI  12
BEATRICE       CLEAR     19  16  88 E3        30.21F
FALLS CITY     PTCLDY    18  15  88 E7        30.26F WCI   9
NEBRASKA CITY  CLEAR     18  13  80 SE5       30.26S WCI  11
$$

NEZ044-045-051>053-067-210900-
OMAHA AREA

CITY           SKY/WX    TMP DP  RH WIND       PRES   REMARKS
OMAHA EPPLEY   PTCLDY    19  14  81 SE5       30.27F WCI  12
BLAIR          PTCLDY    20  15  79 SE8       30.23S WCI  11
FREMONT        CLEAR     21  17  83 SE8       30.23S WCI  11
OFFUTT AFB     CLOUDY    18  13  81 E7        30.26S WCI   8
WAHOO          FAIR      14  11  86 SE3       30.23F
$$



USA.gov is the U.S. government's official web portal to all federal, state and local government web resources and services.